Temp
62 60 59 57 57 59 59 59 59 59 59 59 59 58 58 60 59 58 58 58 59 59 61 60 60 59 60 61 60 60 59 60 59 59 57 57 58 58 57 56 57 58 57 53 57 56 56 54 56 60 61 61 61 62 62 62 61 61 59 58 57 56 55
61 59 59 59 59 59 58 58 59 58 59 58 58 58 58 59 60 59 58 58 58 59 60 59 58 59 60 59 58 58 59 58 59 59 59 57 57 56 56 55 57 56 56 56 57 55 55 55 55 56 57 60 61 61 61 61 61 60 58 57 57 56 55
60 58 58 59 58 57 58 56 57 57 57 58 58 58 58 58 58 59 59 58 57 59 60 58 57 57 57 58 58 59 58 58 57 59 59 57 58 57 57 57 56 54 56 55 54 55 57 57 55 55 57 57 56 57 60 59 59 58 57 55 54 55 54
61 60 58 57 57 57 58 56 56 56 56 57 58 58 57 58 58 59 59 58 58 59 59 58 57 58 57 57 57 58 58 58 58 58 57 56 56 56 55 57 57 58 55 53 55 55 54 55 55 55 57 58 56 55 57 57 57 56 56 54 54 53 53
62 61 59 57 57 57 57 56 55 56 56 56 56 57 56 56 58 57 58 57 57 57 57 56 57 57 57 58 57 57 57 57 58 58 57 56 55 55 55 55 56 54 55 57 57 56 56 56 57 55 55 56 56 55 57 53 55 55 55 55 54 53 52
62 62 61 59 58 58 56 56 56 55 56 58 55 57 56 56 57 58 57 58 56 56 56 57 56 56 56 56 56 56 57 57 57 57 57 56 57 56 55 54 55 54 56 57 57 56 57 57 57 54 54 52 50 52 54 52 53 55 55 55 54 54 54
61 61 60 60 58 58 58 58 57 57 57 56 55 56 56 56 56 56 57 55 55 55 56 55 55 56 56 56 55 55 54 53 55 56 56 54 54 55 56 55 55 55 56 57 57 58 57 57 55 55 53 52 52 52 52 51 56 52 55 54 54 54 53
60 59 59 59 59 58 57 58 57 56 56 55 56 56 56 55 55 55 56 56 55 55 56 56 57 55 55 55 54 54 54 54 55 55 55 55 56 55 54 56 56 56 56 56 57 58 59 59 58 56 55 52 49 49 49 51 49 50 51 53 54 53 52
61 59 58 59 58 59 59 59 56 55 55 55 55 55 55 54 55 56 55 55 54 55 55 55 55 54 54 54 54 54 55 57 55 54 53 54 54 54 55 55 57 56 57 57 58 58 57 57 57 56 57 56 52 48 47 50 46 50 53 52 54 53 52
60 60 60 58 58 58 59 58 56 55 55 55 56 55 54 53 54 55 55 54 54 54 54 54 54 53 53 54 54 54 55 54 55 54 53 55 52 54 55 56 56 56 56 58 58 58 57 56 56 55 55 56 55 52 46 45 47 46 52 50 51 53 52
62 61 60 59 59 60 59 58 57 57 56 57 57 57 54 54 56 57 54 53 54 54 53 53 52 52 53 53 52 53 53 53 54 53 53 54 53 54 54 54 56 55 57 58 58 57 57 58 57 57 55 54 55 55 46 46 47 45 50 50 47 52 51
61 61 61 61 61 61 60 58 57 56 56 55 57 55 54 53 53 53 53 53 53 53 52 52 52 52 52 53 53 52 52 53 54 52 52 54 54 55 54 54 54 55 55 57 57 57 57 57 57 56 55 55 54 52 53 48 47 49 49 51 50 49 53
62 62 62 61 61 61 60 59 58 57 56 56 54 54 54 54 54 54 53 53 53 52 53 53 52 51 51 51 51 53 52 53 54 52 52 52 55 53 54 54 54 56 54 56 56 56 55 55 56 57 57 55 52 51 52 49 50 53 49 50 49 51 54
59 60 60 61 61 59 59 58 58 58 56 55 54 54 55 55 54 53 53 54 53 52 53 52 51 51 51 51 51 51 51 52 54 52 52 52 53 53 53 53 53 54 54 57 55 54 55 54 55 57 57 54 53 52 54 48 49 49 52 47 48 51 52
59 59 59 59 59 59 59 58 58 60 59 55 54 54 54 54 54 54 54 54 52 52 52 52 52 51 52 53 53 53 51 51 51 51 51 52 51 53 52 53 51 53 54 54 53 56 55 54 56 55 54 55 54 53 54 50 47 48 52 52 53 51 50
59 59 59 59 59 60 59 59 59 60 58 55 55 55 56 55 55 54 55 54 53 52 52 52 51 52 51 52 53 54 51 50 51 52 52 53 53 51 52 52 51 51 53 52 51 52 52 53 54 57 56 55 55 54 55 52 49 50 51 50 48 51 50
59 60 59 58 59 59 59 59 60 60 58 56 57 56 55 54 54 53 55 54 53 53 53 53 53 52 53 52 53 53 52 52 51 51 52 53 53 51 51 52 51 50 51 52 50 51 51 51 52 53 53 52 53 55 55 52 54 47 47 52 48 54 51
58 58 58 57 58 58 58 59 60 60 58 56 56 56 56 55 55 55 56 54 54 53 53 53 53 54 53 52 52 52 52 52 52 51 52 51 56 51 53 53 52 50 50 52 50 51 51 52 53 52 52 52 52 52 52 53 51 49 52 53 51 50 49
57 58 58 58 58 59 59 59 59 58 59 58 56 56 57 55 57 56 55 55 55 54 53 53 53 53 53 53 53 52 52 52 52 52 52 52 52 51 51 51 50 50 50 52 51 50 50 50 51 51 51 52 53 52 51 50 50 51 53 51 52 51 49
57 57 57 58 58 58 59 59 59 59 58 58 57 57 56 56 55 56 57 55 55 55 54 54 54 54 54 53 53 53 53 53 53 53 52 52 51 51 50 51 50 50 50 50 50 50 50 50 52 50 51 50 51 52 52 50 51 51 51 50 49 49 49
58 57 57 58 58 58 58 58 57 58 58 57 57 57 59 58 55 56 56 56 55 54 54 54 54 54 54 53 52 52 52 52 53 54 53 52 52 52 52 52 51 50 50 50 51 49 50 51 50 50 49 50 49 51 51 49 49 50 49 49 49 47 45
58 58 58 58 58 58 57 57 57 57 56 57 58 56 56 57 56 55 56 56 56 55 55 55 54 53 54 54 52 53 52 52 52 53 54 54 53 52 53 52 52 51 55 57 54 54 54 55 53 52 49 48 48 50 48 49 50 48 49 50 48 43 45
57 57 57 58 57 56 56 56 56 56 56 56 55 55 55 55 56 57 56 55 54 55 55 55 56 54 55 57 54 55 53 53 54 53 54 53 54 53 53 52 53 60 56 55 53 50 50 51 55 54 51 49 49 49 49 48 48 49 50 50 48 47 47
55 55 55 55 55 55 55 54 53 54 54 55 55 55 55 54 54 56 56 55 55 55 55 57 52 47 47 51 56 55 55 54 53 53 53 53 53 53 52 52 51 54 54 55 50 48 47 48 47 48 49 50 52 51 49 47 47 48 48 49 44 45 46
55 54 54 55 55 54 54 54 54 52 51 53 54 54 54 54 53 53 54 54 55 56 56 53 45 44 45 46 52 55 55 55 53 52 53 53 53 52 52 52 51 52 50 50 48 46 46 44 43 43 44 45 46 47 48 51 48 46 45 47 45 45 45
54 54 55 55 54 53 53 53 53 53 52 51 52 53 51 53 52 52 52 52 52 52 54 45 41 43 43 43 46 52 55 54 54 53 53 54 53 52 51 51 51 50 53 57 54 48 48 46 44 43 43 43 43 43 44 44 45 51 50 49 48 44 44
54 53 53 53 53 52 52 51 50 50 51 51 52 51 52 52 52 52 52 52 51 51 52 44 40 42 42 42 43 47 55 54 55 55 55 55 54 54 53 53 52 52 52 53 51 49 49 47 47 47 47 46 46 45 42 41 43 45 49 51 49 48 46
53 54 54 52 52 52 51 50 50 49 49 52 52 51 51 52 52 52 52 50 50 54 52 45 39 40 41 41 41 42 52 54 54 54 54 54 54 54 53 53 53 53 53 53 51 50 50 48 47 47 45 45 45 44 44 45 44 44 46 47 49 50 48
52 53 52 52 51 51 50 50 50 50 49 49 48 48 48 49 51 52 52 51 51 51 50 42 41 40 40 40 40 46 49 49 50 52 52 53 52 52 52 52 52 52 52 52 50 45 48 49 48 47 45 43 43 43 43 43 40 41 44 44 45 47 46
49 50 51 50 49 49 49 48 48 48 48 47 49 49 49 49 49 50 50 50 50 48 50 48 40 40 40 40 42 48 49 48 49 50 52 52 52 52 51 52 52 52 52 52 48 42 44 47 49 48 46 43 43 43 43 43 41 40 41 41 41 41 41
48 48 48 48 48 47 46 47 48 47 49 47 48 47 48 47 47 49 49 50 50 49 49 49 42 40 40 40 42 49 50 49 49 49 50 50 50 49 50 53 54 52 52 51 45 42 42 47 49 47 45 44 44 43 42 43 44 43 41 41 40 40 40
47 48 48 47 47 47 47 47 45 45 46 47 46 46 46 46 46 46 47 48 52 50 49 48 43 41 40 40 42 47 49 49 49 49 49 49 46 47 46 49 51 51 51 49 42 41 41 47 49 47 46 45 44 43 42 41 43 43 41 42 40 41 40
47 47 47 47 47 47 47 47 46 46 45 46 46 45 44 45 46 47 46 46 47 48 48 48 47 40 41 41 41 46 49 49 49 49 48 49 49 46 45 46 47 44 44 44 41 40 41 44 49 47 46 46 44 42 41 39 40 43 42 40 38 39 38
46 46 47 46 46 47 46 46 45 45 45 46 44 45 45 43 43 44 45 45 45 46 47 49 48 41 40 40 40 41 48 49 50 49 48 47 47 48 47 46 46 45 42 42 41 40 41 42 45 48 48 47 48 47 42 41 40 43 41 40 40 38 38
45 45 46 46 45 45 46 47 47 45 45 44 45 44 43 43 44 44 44 44 45 45 47 49 47 44 40 40 39 39 45 48 48 48 47 47 46 45 46 45 45 44 41 41 40 40 41 42 43 48 47 45 41 41 44 43 41 40 40 38 37 38 38
43 44 44 44 44 44 44 45 45 45 45 45 45 44 43 43 43 43 44 46 45 45 44 43 40 42 41 39 38 38 39 41 38 42 46 47 46 47 46 45 44 44 40 40 40 40 41 42 43 47 43 40 40 41 42 41 40 40 38 37 38 37 37
42 42 42 42 42 42 42 42 43 43 43 43 43 43 42 42 43 43 44 45 46 46 45 41 39 37 38 37 37 37 37 37 37 39 41 43 45 44 45 42 42 42 40 40 38 38 39 40 46 42 39 40 40 42 43 40 39 39 37 36 36 36 36
MSLP
1016.82 1017.06 1017.26 1017.42 1017.46 1017.58 1017.70 1017.78 1017.82 1017.86 1017.90 1017.86 1017.86 1017.86 1017.90 1017.98 1018.06 1018.18 1018.26 1018.42 1018.58 1018.70 1018.78 1018.86 1018.90 1019.02 1019.18 1019.34 1019.42 1019.62 1019.82 1019.82 1019.94 1020.18 1020.50 1020.54 1020.66 1020.82 1020.94 1020.90 1020.98 1021.14 1021.18 1021.18 1021.30 1021.78 1022.34 1022.98 1023.14 1022.90 1022.82 1022.90 1022.94 1023.02 1023.10 1023.22 1023.22 1023.26 1023.42 1023.54 1023.62 1023.70 1023.74
1016.78 1017.06 1017.34 1017.42 1017.58 1017.70 1017.82 1017.98 1017.94 1018.06 1018.10 1018.10 1018.06 1017.98 1017.94 1017.94 1017.98 1018.14 1018.30 1018.46 1018.62 1018.70 1018.78 1018.90 1018.94 1018.98 1019.06 1019.26 1019.46 1019.66 1019.78 1019.90 1019.86 1019.94 1020.14 1020.34 1020.46 1020.54 1020.90 1021.26 1021.18 1021.30 1021.34 1021.38 1021.42 1021.46 1022.06 1022.70 1023.06 1023.10 1023.26 1023.14 1023.22 1023.42 1023.50 1023.54 1023.62 1023.66 1023.78 1023.86 1023.86 1023.94 1023.94
1017.02 1017.26 1017.34 1017.54 1017.70 1017.74 1017.90 1018.06 1018.06 1018.10 1018.18 1018.18 1018.18 1018.14 1018.06 1018.10 1018.10 1018.14 1018.26 1018.34 1018.46 1018.58 1018.70 1018.82 1018.90 1018.98 1019.02 1019.06 1019.18 1019.38 1019.62 1019.82 1019.90 1019.90 1019.94 1020.10 1020.18 1020.30 1020.54 1020.86 1021.14 1021.46 1021.50 1021.62 1021.74 1021.78 1022.06 1022.18 1022.74 1023.14 1023.26 1023.46 1023.70 1024.02 1023.94 1024.06 1024.06 1024.10 1024.14 1024.14 1024.14 1024.10 1024.06
1017.02 1017.18 1017.54 1017.82 1017.86 1017.90 1017.98 1018.14 1018.14 1018.26 1018.30 1018.34 1018.34 1018.34 1018.30 1018.26 1018.30 1018.34 1018.34 1018.50 1018.58 1018.66 1018.74 1018.82 1018.86 1018.94 1019.02 1019.06 1019.22 1019.34 1019.54 1019.66 1019.86 1019.94 1020.02 1020.10 1020.18 1020.34 1020.58 1020.66 1020.82 1020.78 1020.90 1021.22 1021.62 1021.66 1021.78 1022.42 1022.82 1023.18 1023.30 1023.50 1023.94 1024.34 1024.46 1024.38 1024.38 1024.38 1024.38 1024.34 1024.30 1024.26 1024.26
1016.82 1017.22 1017.46 1017.78 1017.90 1017.98 1018.10 1018.26 1018.38 1018.38 1018.42 1018.46 1018.46 1018.42 1018.50 1018.46 1018.46 1018.58 1018.62 1018.66 1018.74 1018.78 1018.86 1018.94 1019.02 1019.02 1019.10 1019.18 1019.26 1019.34 1019.50 1019.62 1019.74 1019.86 1020.02 1020.10 1020.22 1020.34 1020.50 1020.66 1020.74 1020.78 1020.74 1020.86 1021.26 1021.46 1021.78 1022.22 1022.34 1023.02 1023.46 1023.82 1024.26 1024.58 1024.50 1024.42 1024.42 1024.46 1024.50 1024.50 1024.50 1024.42 1024.42
1016.66 1016.98 1017.34 1017.66 1017.90 1018.06 1018.22 1018.34 1018.38 1018.46 1018.58 1018.58 1018.58 1018.46 1018.58 1018.54 1018.54 1018.66 1018.78 1018.82 1018.90 1018.98 1019.02 1019.06 1019.14 1019.14 1019.18 1019.26 1019.38 1019.46 1019.50 1019.54 1019.66 1019.82 1019.98 1020.06 1020.18 1020.22 1020.38 1020.58 1020.62 1020.70 1020.70 1020.90 1021.22 1021.58 1021.90 1022.10 1022.38 1023.06 1023.58 1023.54 1024.06 1024.50 1024.42 1024.38 1024.58 1024.54 1024.54 1024.58 1024.54 1024.54 1024.46
1016.70 1016.94 1017.26 1017.58 1017.94 1018.02 1018.10 1018.18 1018.22 1018.30 1018.46 1018.54 1018.62 1018.58 1018.62 1018.66 1018.70 1018.78 1018.90 1019.02 1019.10 1019.14 1019.18 1019.18 1019.22 1019.26 1019.30 1019.34 1019.42 1019.50 1019.58 1019.70 1019.74 1019.82 1019.94 1020.10 1020.18 1020.18 1020.26 1020.38 1020.54 1020.70 1020.82 1020.98 1021.26 1021.54 1021.90 1022.26 1022.70 1022.78 1023.34 1023.82 1024.02 1024.26 1024.30 1024.38 1024.46 1024.54 1024.54 1024.54 1024.58 1024.54 1024.54
1016.74 1017.06 1017.34 1017.54 1017.78 1017.98 1018.06 1018.06 1018.22 1018.30 1018.34 1018.62 1018.58 1018.70 1018.74 1018.74 1018.86 1018.98 1019.06 1019.14 1019.22 1019.26 1019.30 1019.30 1019.38 1019.42 1019.46 1019.50 1019.58 1019.62 1019.70 1019.74 1019.78 1019.86 1019.98 1019.98 1020.10 1020.22 1020.26 1020.30 1020.54 1020.74 1020.82 1021.06 1021.26 1021.50 1021.62 1021.82 1022.02 1022.46 1022.66 1023.70 1024.14 1024.14 1024.22 1024.30 1024.50 1024.46 1024.58 1024.62 1024.58 1024.58 1024.58
1016.78 1017.10 1017.42 1017.66 1017.78 1017.78 1017.98 1018.02 1018.22 1018.30 1018.42 1018.58 1018.74 1018.74 1018.86 1018.86 1018.90 1019.14 1019.26 1019.34 1019.46 1019.46 1019.46 1019.46 1019.50 1019.54 1019.62 1019.62 1019.74 1019.74 1019.74 1019.82 1019.78 1019.90 1020.02 1020.06 1020.14 1020.22 1020.26 1020.38 1020.50 1020.74 1020.90 1021.06 1021.22 1021.38 1021.58 1021.74 1021.94 1022.18 1022.18 1022.38 1023.14 1024.22 1024.26 1024.38 1024.42 1024.50 1024.42 1024.50 1024.54 1024.50 1024.54
1016.90 1017.14 1017.42 1017.70 1017.78 1017.86 1017.90 1018.06 1018.14 1018.38 1018.54 1018.62 1018.74 1018.86 1018.94 1019.06 1019.14 1019.26 1019.38 1019.54 1019.58 1019.58 1019.58 1019.62 1019.66 1019.70 1019.74 1019.74 1019.78 1019.78 1019.78 1019.90 1019.78 1019.94 1020.06 1020.06 1020.22 1020.26 1020.26 1020.30 1020.42 1020.70 1020.90 1021.02 1021.18 1021.30 1021.50 1021.78 1022.02 1022.10 1022.14 1022.22 1022.46 1023.26 1024.14 1024.38 1024.30 1024.38 1024.34 1024.26 1024.38 1024.34 1024.50
1016.94 1017.18 1017.42 1017.62 1017.78 1017.90 1018.02 1018.10 1018.22 1018.42 1018.54 1018.62 1018.70 1018.90 1018.98 1019.10 1019.22 1019.34 1019.46 1019.58 1019.70 1019.66 1019.66 1019.82 1019.86 1019.90 1019.90 1019.98 1019.98 1019.94 1019.98 1019.94 1019.94 1020.18 1020.26 1020.22 1020.30 1020.34 1020.38 1020.50 1020.50 1020.62 1020.82 1020.94 1021.06 1021.18 1021.38 1021.58 1021.78 1021.94 1022.14 1022.26 1022.22 1022.46 1023.14 1023.70 1024.10 1024.18 1024.02 1024.18 1024.22 1024.14 1024.54
1016.90 1017.10 1017.26 1017.42 1017.62 1017.78 1017.94 1018.02 1018.06 1018.30 1018.54 1018.62 1018.70 1018.82 1018.94 1019.06 1019.22 1019.38 1019.46 1019.54 1019.66 1019.70 1019.82 1019.90 1020.02 1020.06 1020.10 1020.14 1020.18 1020.14 1020.18 1020.14 1020.02 1020.22 1020.38 1020.38 1020.46 1020.42 1020.50 1020.54 1020.58 1020.62 1020.82 1020.90 1021.02 1021.18 1021.34 1021.50 1021.66 1021.86 1022.06 1022.18 1022.34 1022.38 1022.46 1023.14 1023.82 1023.90 1023.98 1023.94 1023.94 1024.02 1024.06
1016.54 1016.86 1017.14 1017.34 1017.58 1017.70 1017.82 1018.02 1018.14 1018.30 1018.50 1018.66 1018.70 1018.78 1018.86 1018.94 1019.10 1019.26 1019.46 1019.54 1019.70 1019.86 1019.94 1020.06 1020.18 1020.18 1020.26 1020.30 1020.30 1020.22 1020.26 1020.14 1020.06 1020.26 1020.42 1020.50 1020.46 1020.46 1020.46 1020.50 1020.62 1020.62 1020.82 1020.90 1021.02 1021.14 1021.30 1021.54 1021.62 1021.82 1021.90 1022.10 1022.30 1022.46 1022.58 1022.66 1022.94 1023.26 1023.74 1023.58 1023.58 1023.78 1023.98
1016.74 1016.98 1017.22 1017.38 1017.58 1017.82 1017.90 1018.02 1018.10 1018.22 1018.54 1018.74 1018.82 1018.90 1018.90 1018.94 1019.02 1019.18 1019.34 1019.54 1019.70 1019.90 1020.06 1020.18 1020.30 1020.26 1020.26 1020.38 1020.42 1020.38 1020.34 1020.26 1020.22 1020.42 1020.38 1020.50 1020.66 1020.54 1020.50 1020.66 1020.86 1020.90 1020.94 1020.82 1020.98 1021.14 1021.30 1021.54 1021.78 1021.82 1021.86 1022.10 1022.34 1022.50 1022.62 1022.86 1023.02 1023.38 1023.62 1024.02 1023.82 1023.82 1024.18
1016.90 1017.14 1017.42 1017.62 1017.74 1017.86 1017.86 1018.02 1018.14 1018.34 1018.50 1018.74 1018.82 1018.90 1018.98 1019.02 1019.02 1019.10 1019.26 1019.46 1019.74 1019.94 1020.10 1020.18 1020.22 1020.26 1020.26 1020.38 1020.42 1020.46 1020.42 1020.38 1020.42 1020.54 1020.54 1020.50 1020.70 1020.82 1020.78 1020.78 1020.94 1020.98 1021.10 1020.98 1021.14 1021.26 1021.38 1021.58 1021.70 1021.94 1022.06 1022.10 1022.30 1022.50 1022.58 1022.74 1023.26 1023.30 1023.50 1023.74 1023.78 1024.06 1024.14
1017.22 1017.42 1017.54 1017.66 1017.70 1017.70 1017.86 1018.06 1018.10 1018.30 1018.58 1018.66 1018.86 1018.90 1018.98 1019.10 1019.10 1019.14 1019.26 1019.46 1019.66 1019.82 1019.98 1020.06 1020.18 1020.26 1020.30 1020.34 1020.34 1020.42 1020.50 1020.46 1020.50 1020.62 1020.66 1020.74 1020.86 1020.98 1020.86 1020.98 1021.14 1021.26 1021.30 1021.26 1021.42 1021.54 1021.70 1021.62 1021.70 1021.74 1021.82 1021.98 1022.14 1022.42 1022.46 1022.46 1022.86 1023.34 1023.50 1023.58 1023.82 1023.86 1023.98
1017.22 1017.46 1017.58 1017.70 1017.66 1017.74 1017.90 1018.10 1018.26 1018.46 1018.62 1018.78 1018.90 1019.06 1019.06 1019.10 1019.22 1019.34 1019.46 1019.62 1019.66 1019.74 1019.86 1020.02 1020.14 1020.30 1020.30 1020.34 1020.42 1020.50 1020.58 1020.62 1020.66 1020.78 1020.82 1020.90 1020.98 1020.98 1021.02 1021.06 1021.26 1021.34 1021.30 1021.30 1021.50 1021.58 1021.78 1021.90 1021.86 1021.82 1021.94 1022.10 1022.10 1022.26 1022.30 1022.42 1022.42 1022.78 1023.54 1023.54 1023.82 1023.70 1023.90
1017.22 1017.58 1017.82 1017.98 1017.98 1018.02 1017.98 1018.22 1018.34 1018.46 1018.74 1018.90 1018.94 1019.10 1019.18 1019.14 1019.14 1019.30 1019.50 1019.62 1019.66 1019.74 1019.90 1020.02 1020.10 1020.18 1020.30 1020.38 1020.46 1020.54 1020.58 1020.66 1020.70 1020.78 1020.94 1021.02 1021.06 1021.06 1021.06 1021.10 1021.26 1021.30 1021.30 1021.30 1021.54 1021.58 1021.66 1021.66 1021.86 1021.98 1022.02 1022.14 1022.22 1022.46 1022.46 1022.42 1022.58 1022.66 1023.10 1023.38 1023.50 1023.90 1024.10
1017.34 1017.62 1017.74 1017.90 1017.98 1018.14 1018.18 1018.34 1018.30 1018.38 1018.58 1018.78 1018.98 1019.10 1019.18 1019.26 1019.18 1019.22 1019.30 1019.42 1019.50 1019.66 1019.90 1019.98 1019.98 1020.06 1020.14 1020.34 1020.50 1020.62 1020.66 1020.66 1020.74 1020.82 1020.94 1021.10 1021.14 1021.14 1021.02 1021.10 1021.18 1021.26 1021.22 1021.22 1021.46 1021.66 1021.70 1021.66 1021.78 1021.86 1021.98 1022.02 1022.14 1022.34 1022.42 1022.54 1022.54 1022.70 1022.90 1023.14 1023.34 1023.70 1024.06
1017.46 1017.70 1017.78 1017.90 1018.06 1018.34 1018.66 1018.54 1018.30 1018.42 1018.62 1018.74 1019.02 1019.10 1019.18 1019.22 1019.26 1019.22 1019.22 1019.42 1019.58 1019.70 1019.90 1020.02 1020.06 1020.14 1020.26 1020.46 1020.66 1020.70 1020.74 1020.74 1020.78 1020.86 1020.94 1021.02 1021.14 1021.14 1021.10 1021.06 1021.14 1021.26 1021.26 1021.30 1021.38 1021.54 1021.70 1021.82 1021.70 1021.74 1021.82 1021.90 1022.06 1022.14 1022.26 1022.34 1022.50 1022.74 1023.02 1023.26 1023.58 1023.70 1023.78
1017.46 1017.82 1018.22 1018.10 1018.18 1018.50 1018.58 1018.70 1018.50 1018.54 1018.70 1018.86 1019.06 1019.22 1019.26 1019.30 1019.30 1019.42 1019.46 1019.58 1019.74 1019.82 1019.94 1020.10 1020.22 1020.30 1020.38 1020.54 1020.70 1020.78 1020.78 1020.74 1020.78 1020.90 1021.02 1021.18 1021.26 1021.26 1021.30 1021.30 1021.26 1021.30 1021.38 1021.42 1021.42 1021.58 1021.74 1021.78 1022.02 1021.90 1022.06 1022.02 1022.06 1022.10 1022.18 1022.38 1022.62 1022.82 1023.10 1023.26 1023.30 1023.50 1023.78
1017.26 1017.58 1017.82 1018.10 1018.38 1018.54 1018.70 1018.66 1018.66 1018.66 1018.78 1018.86 1019.02 1019.14 1019.26 1019.34 1019.34 1019.38 1019.54 1019.70 1019.82 1019.98 1020.10 1020.18 1020.30 1020.38 1020.46 1020.62 1020.74 1020.70 1020.74 1020.78 1020.86 1020.94 1021.06 1021.22 1021.30 1021.30 1021.38 1021.42 1021.46 1021.42 1021.50 1021.66 1021.78 1021.74 1021.86 1021.94 1021.90 1022.02 1022.34 1022.34 1022.22 1022.22 1022.34 1022.46 1022.58 1022.78 1023.02 1023.18 1023.38 1023.74 1023.70
1017.18 1017.66 1017.86 1018.06 1018.46 1018.62 1018.74 1018.78 1018.70 1018.70 1018.78 1018.86 1018.98 1019.18 1019.38 1019.50 1019.46 1019.38 1019.46 1019.62 1019.78 1019.94 1020.02 1020.14 1020.22 1020.26 1020.30 1020.38 1020.62 1020.70 1020.74 1020.78 1020.86 1020.94 1021.02 1021.14 1021.26 1021.34 1021.42 1021.58 1021.66 1021.58 1021.54 1021.62 1021.78 1021.94 1022.02 1022.06 1022.06 1021.98 1022.02 1022.22 1022.18 1022.26 1022.38 1022.54 1022.66 1022.70 1022.78 1022.94 1023.02 1023.38 1023.58
1017.94 1018.06 1018.22 1018.38 1018.62 1018.78 1018.82 1018.86 1018.86 1018.90 1018.90 1018.94 1019.02 1019.14 1019.38 1019.54 1019.58 1019.50 1019.46 1019.54 1019.74 1019.86 1019.98 1020.06 1020.06 1020.26 1020.34 1020.38 1020.46 1020.66 1020.70 1020.82 1020.90 1020.94 1021.06 1021.10 1021.14 1021.22 1021.38 1021.58 1021.66 1021.70 1021.66 1021.66 1021.74 1021.94 1022.06 1022.10 1021.98 1021.98 1022.10 1022.18 1022.18 1022.14 1022.42 1022.58 1022.62 1022.78 1022.66 1022.74 1023.14 1023.30 1023.22
1018.50 1018.62 1018.62 1018.66 1018.66 1018.82 1018.90 1018.86 1018.90 1019.02 1019.06 1019.06 1019.14 1019.26 1019.30 1019.50 1019.70 1019.78 1019.78 1019.74 1019.66 1019.70 1019.82 1019.90 1020.10 1020.30 1020.46 1020.58 1020.66 1020.74 1020.86 1020.98 1021.42 1021.86 1021.54 1021.30 1021.22 1021.26 1021.30 1021.46 1021.62 1021.74 1021.74 1021.74 1021.82 1021.90 1022.14 1022.34 1022.26 1022.10 1022.06 1022.10 1022.18 1022.26 1022.22 1022.18 1022.46 1022.82 1022.74 1022.74 1022.98 1023.06 1023.22
1018.74 1018.74 1018.86 1018.98 1019.14 1019.18 1019.10 1019.14 1019.22 1019.22 1019.30 1019.50 1019.46 1019.42 1019.50 1019.46 1019.42 1019.46 1019.54 1019.74 1020.06 1020.14 1019.94 1020.14 1020.26 1020.34 1020.50 1020.62 1020.46 1020.50 1020.94 1021.34 1021.26 1021.62 1021.46 1021.34 1021.26 1021.26 1021.30 1021.38 1021.54 1021.66 1021.74 1021.78 1021.86 1021.98 1022.02 1022.18 1022.50 1022.42 1022.34 1022.34 1022.34 1022.30 1022.26 1022.38 1022.38 1022.14 1022.42 1022.58 1022.70 1023.38 1023.42
1018.98 1019.06 1019.18 1019.38 1019.70 1019.86 1019.66 1019.50 1019.54 1019.54 1019.50 1019.58 1019.54 1019.58 1019.62 1019.50 1019.42 1019.42 1019.50 1019.74 1019.78 1020.06 1020.46 1020.50 1020.50 1020.62 1020.62 1020.62 1020.70 1020.70 1020.86 1020.98 1021.06 1021.18 1021.22 1021.10 1021.14 1021.14 1021.22 1021.30 1021.42 1021.50 1021.66 1021.78 1021.94 1021.98 1022.02 1022.10 1022.22 1022.30 1022.34 1022.34 1022.38 1022.54 1022.54 1022.50 1022.42 1022.58 1022.62 1022.34 1022.58 1022.98 1023.66
1019.26 1019.18 1019.18 1019.46 1019.70 1019.70 1019.78 1019.86 1019.78 1020.06 1019.90 1019.54 1019.38 1019.38 1019.42 1019.34 1019.38 1019.58 1019.70 1019.54 1019.34 1019.54 1019.98 1020.26 1020.46 1020.50 1020.66 1020.90 1021.14 1021.18 1021.14 1021.06 1021.02 1021.22 1021.34 1021.34 1021.18 1021.10 1021.14 1021.26 1021.30 1021.30 1021.46 1021.66 1021.82 1021.90 1021.94 1022.10 1022.18 1022.30 1022.34 1022.38 1022.50 1022.58 1022.58 1022.54 1022.62 1022.70 1022.66 1022.82 1022.62 1022.62 1023.06
1019.66 1019.74 1019.86 1019.94 1020.02 1020.02 1019.94 1019.90 1019.78 1019.82 1019.74 1019.90 1019.98 1019.98 1020.14 1020.22 1020.26 1020.10 1020.02 1019.82 1019.58 1019.86 1020.26 1020.22 1020.46 1020.58 1020.66 1020.74 1021.06 1021.46 1021.46 1021.22 1021.10 1020.98 1020.90 1021.02 1021.10 1021.14 1021.14 1021.18 1021.26 1021.30 1021.38 1021.54 1021.62 1021.78 1021.78 1022.02 1022.14 1022.18 1022.30 1022.62 1022.74 1022.94 1022.98 1023.30 1023.22 1023.02 1023.02 1022.90 1022.98 1023.18 1023.38
1020.10 1020.14 1020.22 1020.22 1020.30 1020.34 1020.22 1020.18 1020.18 1020.18 1019.98 1019.94 1019.82 1019.94 1020.06 1020.10 1020.18 1020.26 1020.22 1020.38 1020.38 1020.62 1020.62 1020.90 1021.22 1020.98 1020.86 1020.90 1021.14 1021.30 1021.38 1021.34 1021.22 1021.10 1020.98 1021.02 1021.10 1021.10 1021.14 1021.14 1021.14 1021.18 1021.22 1021.30 1021.38 1021.58 1021.78 1021.86 1021.94 1022.06 1022.26 1022.54 1022.86 1022.82 1023.02 1023.54 1023.54 1023.38 1023.26 1023.34 1023.54 1023.62 1023.82
1020.50 1020.50 1020.50 1020.62 1020.70 1020.66 1020.54 1020.42 1020.38 1020.50 1020.18 1020.14 1020.10 1020.10 1020.22 1020.18 1020.26 1020.18 1020.10 1020.10 1020.38 1020.70 1020.86 1020.74 1020.70 1020.82 1020.94 1021.14 1021.18 1021.06 1021.18 1021.22 1021.10 1021.10 1020.98 1021.02 1021.06 1021.02 1020.98 1020.98 1020.98 1020.98 1020.98 1021.02 1021.14 1021.34 1021.62 1021.70 1021.74 1021.98 1022.22 1022.42 1022.58 1022.70 1023.22 1023.50 1023.58 1023.82 1023.70 1023.62 1023.74 1023.94 1024.10
1020.98 1020.82 1020.78 1020.90 1020.90 1020.82 1020.78 1020.82 1020.82 1020.66 1020.50 1020.38 1020.26 1020.42 1020.50 1020.42 1020.38 1020.50 1020.54 1020.54 1020.66 1020.66 1020.70 1020.70 1020.78 1020.86 1021.06 1021.26 1021.50 1021.54 1021.50 1021.42 1021.26 1021.06 1021.06 1020.94 1020.98 1020.98 1020.90 1020.86 1020.74 1020.66 1020.66 1020.74 1020.94 1021.18 1021.42 1021.46 1021.54 1021.86 1022.06 1022.22 1022.34 1022.50 1022.90 1023.22 1023.14 1023.42 1023.46 1023.50 1023.86 1023.94 1024.26
1021.46 1021.38 1021.30 1021.18 1021.14 1021.18 1021.14 1020.94 1020.94 1020.86 1020.82 1020.74 1020.50 1020.38 1020.34 1020.30 1020.22 1020.26 1020.46 1020.50 1020.50 1020.50 1020.50 1020.50 1020.62 1020.82 1020.94 1021.14 1021.42 1021.54 1021.50 1021.42 1021.06 1020.82 1020.78 1020.78 1020.62 1020.70 1020.70 1020.58 1020.50 1020.54 1020.50 1020.62 1020.78 1020.98 1021.18 1021.26 1021.30 1021.82 1022.10 1021.94 1022.10 1022.22 1023.06 1023.26 1023.18 1023.06 1023.30 1023.58 1024.06 1024.26 1024.54
1021.90 1021.82 1021.82 1021.74 1021.58 1021.46 1021.42 1021.42 1021.26 1021.10 1020.98 1020.94 1020.82 1020.70 1020.66 1020.58 1020.46 1020.46 1020.58 1020.50 1020.46 1020.50 1020.54 1020.46 1020.42 1020.58 1020.74 1020.94 1021.18 1021.38 1021.34 1021.22 1021.02 1020.94 1020.74 1020.58 1020.54 1020.30 1020.22 1020.18 1020.22 1020.34 1020.42 1020.50 1020.70 1020.78 1020.98 1021.06 1021.14 1021.46 1021.58 1021.50 1021.46 1021.62 1022.70 1022.98 1023.22 1023.34 1023.50 1023.86 1024.26 1024.62 1024.94
1022.30 1022.14 1021.94 1021.82 1021.82 1021.86 1021.90 1021.74 1021.62 1021.50 1021.34 1021.18 1021.14 1021.22 1021.22 1021.02 1020.78 1020.62 1020.70 1020.70 1020.70 1020.78 1020.70 1020.54 1020.38 1020.42 1020.62 1020.90 1021.22 1021.38 1021.26 1021.02 1021.14 1021.14 1020.82 1020.62 1020.58 1020.50 1020.18 1020.06 1020.02 1020.10 1020.26 1020.34 1020.50 1020.70 1020.70 1020.82 1020.98 1021.14 1021.18 1021.18 1021.70 1022.06 1022.42 1022.78 1023.26 1023.50 1023.74 1024.18 1024.46 1024.74 1024.98
1022.90 1022.66 1022.42 1022.22 1022.06 1022.02 1021.98 1021.86 1021.82 1021.74 1021.58 1021.38 1021.34 1021.38 1021.42 1021.34 1021.10 1020.90 1020.70 1020.66 1020.74 1020.82 1020.98 1020.90 1020.86 1020.70 1020.94 1021.14 1021.34 1021.50 1021.54 1021.50 1021.50 1021.38 1021.14 1020.62 1020.34 1020.06 1020.06 1020.18 1020.22 1020.30 1020.38 1020.46 1020.58 1020.58 1020.46 1020.54 1020.82 1020.70 1021.02 1021.46 1021.62 1022.06 1022.42 1022.90 1023.18 1023.42 1023.78 1024.14 1024.38 1024.78 1025.22
1022.94 1022.86 1022.86 1022.74 1022.62 1022.58 1022.50 1022.42 1022.26 1022.26 1022.10 1021.94 1021.86 1021.74 1021.82 1021.70 1021.38 1021.18 1021.10 1021.02 1020.86 1020.94 1021.10 1021.22 1021.18 1021.02 1020.90 1021.06 1021.30 1021.54 1021.66 1021.66 1021.66 1021.58 1021.42 1021.02 1020.82 1020.78 1020.66 1020.58 1020.46 1020.30 1020.50 1020.94 1021.38 1021.78 1021.90 1021.46 1020.70 1020.54 1021.06 1021.26 1021.78 1022.10 1022.42 1022.82 1023.06 1023.42 1023.90 1024.38 1024.74 1025.10 1025.34
Wind_Speed
7 6 5 4 3 3 5 3 4 3 2 3 3 2 3 4 4 3 3 3 4 3 4 5 4 3 3 3 3 4 5 5 5 6 5 4 7 3 2 3 3 3 4 2 4 4 5 4 2 3 4 4 4 5 5 5 5 4 4 4 4 4 4
5 5 4 3 5 4 6 3 5 3 4 3 2 3 3 3 3 4 4 4 4 3 3 4 3 3 5 5 5 5 5 4 4 4 5 6 5 4 4 3 4 4 4 3 4 3 4 5 4 3 4 5 6 6 5 5 5 5 4 4 3 3 3
5 4 4 5 4 4 6 4 4 4 3 4 3 3 3 3 3 3 4 4 3 3 3 3 3 3 3 4 4 5 5 5 3 5 6 5 4 3 4 6 4 3 4 3 3 6 6 5 5 5 4 4 4 5 5 5 5 5 4 3 3 3 4
6 7 7 5 5 4 6 4 4 3 3 4 4 3 3 3 4 3 4 3 3 3 3 3 3 3 3 3 3 4 5 6 5 4 3 2 3 3 3 6 7 7 6 4 6 4 5 5 7 5 5 6 6 5 4 4 4 4 3 3 3 4 3
8 6 8 7 5 6 5 5 3 4 4 4 3 4 3 3 4 4 4 4 4 4 4 3 3 3 3 4 4 4 4 4 5 5 4 3 3 2 3 4 4 3 3 6 6 5 7 7 8 7 7 5 6 4 1 3 3 4 4 3 3 2 2
8 8 7 7 5 6 6 5 4 6 4 5 3 5 2 3 4 5 4 4 3 3 3 3 3 3 3 3 3 3 3 4 5 6 5 4 5 4 5 2 4 3 3 4 6 6 5 7 9 10 4 3 5 3 0 1 1 2 2 3 2 2 2
7 7 7 7 5 5 6 6 6 6 6 4 3 4 1 2 3 3 4 3 3 3 3 3 3 3 3 3 3 4 3 3 3 4 4 4 3 3 4 4 3 3 4 5 6 7 8 8 7 9 7 4 3 4 0 2 0 2 2 2 2 2 2
7 6 6 6 7 6 4 6 4 4 6 3 5 2 2 4 4 4 4 4 3 3 3 4 3 3 3 3 3 3 3 3 4 5 4 5 5 4 3 4 4 3 5 5 6 6 7 7 9 9 11 10 3 2 2 1 1 1 2 1 0 1 1
6 6 5 4 5 6 5 6 4 3 3 4 2 3 2 3 5 4 4 4 3 3 3 4 3 3 3 4 3 3 4 2 5 4 3 4 4 4 4 3 5 4 4 6 6 7 6 6 7 6 7 10 11 5 2 1 1 1 1 1 0 1 1
7 8 7 6 5 4 5 5 6 4 4 3 3 2 4 3 4 4 4 3 3 3 4 3 3 3 3 3 4 4 4 2 5 4 3 5 3 4 4 4 5 6 5 5 6 6 6 6 5 5 4 7 8 10 4 3 2 2 3 2 2 2 3
7 7 7 7 5 6 4 5 5 6 4 4 4 3 4 4 4 4 4 3 2 2 4 3 3 3 3 4 3 3 2 3 5 3 3 4 4 3 4 3 4 6 5 6 7 7 7 7 7 6 5 4 5 10 6 7 5 3 3 2 1 3 2
6 7 7 7 7 6 6 5 6 6 4 4 5 4 4 4 4 4 4 4 3 3 3 3 3 3 3 4 3 3 2 2 5 4 2 3 3 4 5 4 3 5 4 6 6 5 5 7 6 6 5 6 3 3 8 6 5 4 3 5 5 3 5
8 8 8 8 7 7 6 5 5 5 5 3 4 4 5 4 4 5 3 4 3 2 3 3 3 3 3 3 2 3 2 3 5 4 3 3 2 4 5 5 4 5 4 5 5 5 6 5 6 6 6 6 4 4 4 5 6 7 5 5 5 4 5
6 6 7 7 7 5 5 5 5 5 4 4 4 4 4 4 4 4 4 3 4 3 3 3 2 2 3 2 2 2 3 4 5 3 3 3 2 3 4 4 2 2 3 6 5 4 4 4 5 6 6 6 5 4 5 3 4 3 1 1 1 2 2
5 5 5 4 6 6 6 6 5 5 5 4 4 4 3 3 4 4 4 4 3 3 3 2 1 1 2 1 1 2 3 4 4 3 2 3 3 3 4 5 2 1 0 4 4 4 4 5 5 5 5 7 6 6 4 4 2 4 6 1 0 1 3
5 6 7 6 7 7 6 5 5 6 5 4 3 4 4 3 3 3 4 4 3 3 3 3 1 2 2 2 1 0 2 3 4 3 3 2 3 2 4 4 3 2 2 4 3 2 2 3 4 6 7 6 7 7 6 5 4 3 6 4 2 2 3
8 6 7 6 8 6 6 4 4 5 4 4 4 3 3 4 3 3 4 3 3 3 3 2 1 1 2 2 1 0 0 1 2 2 2 2 1 2 4 4 3 3 3 4 3 3 3 3 3 4 4 3 4 7 7 4 4 5 3 5 3 5 3
8 6 5 4 4 3 4 3 4 5 4 4 4 4 3 3 4 4 5 4 4 4 4 3 3 1 1 2 2 2 1 1 1 2 2 2 2 2 3 3 1 2 4 4 3 3 2 4 3 3 4 4 4 3 3 4 4 4 6 6 4 2 1
8 8 7 6 3 1 1 2 4 4 6 6 5 4 4 4 4 5 5 5 5 4 3 4 4 4 4 3 2 1 1 2 2 2 1 1 2 2 3 3 3 3 3 4 3 2 3 4 3 4 4 4 5 5 4 3 4 4 5 6 6 4 1
8 8 7 5 3 2 2 3 3 5 4 5 5 5 5 5 4 4 5 4 4 4 3 3 3 3 3 3 3 3 2 1 1 1 1 1 2 2 2 3 3 3 3 3 3 4 4 2 3 4 4 4 4 5 5 4 4 5 5 4 1 1 3
8 7 5 2 1 3 3 3 3 4 4 5 4 4 5 4 4 2 2 3 2 2 3 3 2 2 3 3 4 3 3 3 2 1 1 1 1 0 0 1 1 2 3 3 4 3 3 4 2 3 2 3 4 5 5 4 4 5 5 4 4 4 1
8 9 11 9 7 7 5 4 4 4 4 4 4 4 4 4 4 4 2 2 1 1 2 3 3 3 4 3 3 4 4 3 3 3 2 1 0 1 0 1 1 0 0 2 1 2 2 2 5 4 1 3 4 5 4 4 5 5 4 5 3 2 3
8 6 6 8 5 3 2 3 3 4 4 4 4 3 2 2 4 5 4 3 3 3 4 3 5 9 8 6 5 4 3 4 4 4 4 3 1 1 1 0 0 1 2 3 4 2 1 1 2 1 5 4 4 4 4 5 5 5 6 6 6 6 4
4 4 4 6 5 2 3 3 3 2 1 1 3 3 3 3 4 4 5 5 4 5 4 5 8 9 10 10 6 5 6 5 4 4 4 5 5 4 3 1 0 2 2 3 2 3 4 3 3 6 5 4 5 7 6 4 4 4 6 5 4 3 5
6 6 5 4 3 4 3 4 4 3 3 2 0 1 3 2 2 2 1 1 4 7 7 7 8 8 8 7 4 3 3 3 2 5 2 3 5 4 4 2 1 1 2 2 2 3 3 4 5 7 7 6 6 4 4 6 5 2 3 5 4 4 5
6 5 4 4 3 3 4 4 4 4 3 2 3 3 3 3 3 3 4 2 1 2 3 3 7 8 7 9 11 8 4 4 7 9 9 6 5 5 4 4 3 3 3 5 3 3 4 4 4 6 8 8 6 5 4 4 4 5 6 5 6 5 5
6 5 5 5 5 5 4 4 2 2 3 4 4 3 2 1 1 2 3 4 2 0 2 2 5 5 7 9 8 6 4 4 5 6 7 7 6 6 6 5 5 5 4 4 4 4 4 5 5 4 4 3 4 5 6 6 7 7 4 6 7 6 5
5 5 7 7 5 4 3 2 4 4 2 2 4 3 3 3 1 1 3 3 3 3 1 2 6 7 7 5 3 3 2 4 5 4 4 4 5 5 5 5 5 6 5 5 6 7 6 6 5 4 4 3 3 2 2 3 3 3 3 3 5 5 6
8 7 5 4 4 4 3 1 2 0 1 1 2 2 3 4 2 3 3 1 2 1 1 8 10 9 6 5 3 2 2 3 3 5 5 5 5 5 4 5 5 5 5 6 8 12 9 6 6 5 4 3 2 2 2 2 3 3 0 3 3 5 6
9 8 7 7 7 5 5 4 1 0 2 0 0 0 0 1 1 2 4 1 1 1 1 9 4 6 6 5 2 2 3 4 4 4 6 5 5 5 4 5 5 6 6 6 9 13 12 10 6 6 6 4 3 3 2 4 7 7 7 8 9 11 12
9 8 8 8 6 5 5 5 5 2 1 1 1 2 1 1 2 3 3 4 2 2 4 7 7 7 7 8 6 4 4 4 6 6 6 5 5 4 5 8 8 6 7 7 10 14 13 10 7 7 7 6 5 4 3 2 4 5 9 13 14 13 12
8 8 9 8 7 7 6 5 3 4 4 3 2 0 1 1 2 2 3 3 4 4 4 6 8 10 10 9 6 4 4 4 5 6 6 7 4 5 5 6 10 9 8 8 11 13 14 11 7 8 8 7 6 6 7 6 7 7 5 6 5 6 6
8 8 8 7 7 6 5 6 7 5 5 4 4 3 3 2 2 2 1 2 3 3 4 4 6 10 11 10 9 5 2 4 7 7 6 6 6 5 5 6 6 10 12 11 12 14 15 14 9 7 7 8 8 7 6 5 4 7 5 6 5 5 5
8 7 6 4 4 6 6 6 5 6 5 5 5 6 6 4 4 4 4 5 4 3 3 4 4 9 9 10 9 8 5 6 6 6 6 5 6 6 6 6 5 7 10 11 12 14 15 16 12 9 9 9 10 9 10 6 4 6 7 6 6 6 6
8 7 7 7 7 6 4 4 5 5 5 4 5 6 5 5 5 5 4 4 4 4 6 6 5 4 6 7 7 9 6 7 4 4 6 6 6 6 7 6 6 7 11 12 13 14 16 16 15 9 11 10 10 15 11 6 6 6 7 7 7 6 6
7 7 7 8 8 8 7 7 7 7 6 6 6 6 6 5 5 6 6 6 5 6 6 6 8 5 3 1 4 7 8 6 6 3 4 6 7 8 6 6 6 6 9 10 11 14 16 18 13 10 12 12 14 15 11 7 7 7 7 6 7 7 6
7 6 7 6 6 7 8 6 7 7 7 7 7 7 7 7 7 7 7 6 6 6 6 5 6 6 3 4 4 4 4 7 5 3 2 5 5 5 6 5 6 7 5 1 5 8 10 8 10 13 13 15 15 13 8 8 7 7 7 7 7 7 6
Wind_Direction
156 161 156 138 119 122 107 121 110 86 57 64 85 81 119 136 135 134 136 138 153 178 166 178 181 171 128 114 141 140 144 160 167 165 183 188 178 196 50 87 107 111 123 116 127 150 116 127 100 64 73 81 58 59 68 71 66 63 60 50 56 54 56
141 137 122 112 114 113 102 92 99 88 72 54 56 75 61 99 131 138 128 128 133 146 152 147 155 158 152 147 138 136 146 170 182 179 162 187 172 176 116 74 93 97 81 81 108 74 129 136 112 91 90 69 72 60 53 47 43 45 48 50 62 62 62
127 113 112 115 107 100 101 89 91 85 81 70 51 44 59 60 94 102 104 100 98 100 105 128 132 120 136 149 154 153 147 152 185 171 182 173 182 158 139 149 129 111 90 75 68 107 72 52 121 113 104 119 92 49 40 38 37 34 42 38 53 52 53
145 132 116 98 98 93 105 98 98 90 72 80 68 44 52 75 86 87 98 89 81 81 91 98 108 120 124 122 125 125 141 150 167 160 132 157 158 154 138 152 160 159 164 160 167 159 137 135 117 103 89 77 81 76 22 33 37 34 34 30 44 47 45
143 137 132 135 135 130 131 125 123 95 78 72 71 73 42 66 92 83 79 75 69 74 73 83 86 99 108 109 114 124 128 136 140 141 145 147 158 145 128 130 149 139 123 139 160 134 132 140 128 119 111 110 77 76 81 52 44 44 23 25 27 48 44
136 135 135 136 147 133 134 125 118 109 106 81 66 89 55 71 109 103 91 92 84 77 93 87 82 84 86 88 103 105 127 143 148 143 148 168 163 163 170 154 135 127 132 125 112 112 102 122 131 124 114 106 122 126 188 86 50 21 45 28 23 20 44
134 137 141 138 142 136 139 136 138 142 133 138 129 116 130 82 79 92 104 92 88 90 91 94 91 80 78 86 94 102 107 111 108 121 137 152 160 159 142 138 137 128 132 127 129 126 134 132 134 131 124 85 97 122 100 60 152 66 352 18 20 18 30
136 134 139 141 141 134 134 125 130 131 130 153 133 151 75 87 89 93 105 108 111 110 107 95 85 76 75 74 73 97 89 111 113 118 131 145 143 140 142 147 133 129 136 129 131 136 144 149 146 149 136 130 91 65 53 49 12 79 183 323 21 17 2
130 124 121 125 132 136 140 134 141 138 131 129 113 99 68 84 102 103 99 110 117 120 115 115 111 103 96 91 82 97 100 124 115 105 129 127 136 142 140 131 122 138 135 129 131 139 141 146 145 151 148 138 139 134 79 105 17 23 150 126 321 203 199
135 139 142 143 140 141 138 140 138 143 126 122 118 101 98 70 85 110 115 116 120 126 106 99 104 98 85 88 110 112 107 108 104 113 125 119 132 134 130 145 141 143 139 130 129 135 138 126 130 144 160 149 140 129 142 153 219 161 247 173 155 251 186
140 136 138 141 145 135 137 136 131 127 141 140 128 122 107 90 86 98 116 113 109 104 110 93 89 82 81 71 81 86 100 104 91 70 71 110 121 120 116 121 139 137 150 142 151 151 145 149 151 161 154 167 158 142 156 150 205 206 196 232 185 176 203
139 140 146 149 149 146 155 152 142 142 128 134 131 128 114 105 113 112 121 126 109 104 97 98 90 71 77 82 55 76 45 86 98 87 46 99 116 114 123 125 130 138 157 154 152 152 147 149 161 156 162 155 171 132 141 124 134 240 165 196 240 223 172
149 146 151 151 153 157 153 144 138 134 151 143 137 137 131 130 132 132 122 122 108 79 80 65 62 80 71 68 70 76 46 90 85 82 73 50 87 117 123 130 155 154 165 148 156 167 164 163 159 162 170 168 157 133 130 133 141 185 214 189 211 212 173
135 139 146 154 150 147 146 154 156 146 128 147 137 134 137 143 141 140 133 128 122 104 90 73 39 76 81 70 47 77 68 82 90 57 79 68 58 99 98 103 111 144 163 153 174 166 168 165 165 176 171 157 154 154 141 116 126 151 228 233 213 189 131
117 123 129 133 138 154 164 156 154 135 153 154 148 151 156 158 148 140 139 131 114 107 103 101 85 93 104 88 47 52 85 90 93 83 77 81 49 47 84 94 64 63 33 150 147 162 166 158 167 164 176 165 170 170 167 110 144 142 190 259 347 35 124
105 125 137 150 159 164 162 158 156 146 150 154 169 164 171 168 151 138 128 126 122 125 134 141 132 124 128 142 142 50 74 106 118 121 106 97 64 52 80 85 61 35 66 90 77 95 113 151 165 179 186 177 172 175 177 152 125 150 172 214 185 166 181
124 142 149 162 162 162 159 156 135 137 141 143 167 207 176 162 133 124 117 112 140 149 150 157 132 142 162 156 156 115 48 106 115 124 134 128 89 84 104 82 53 73 85 86 69 91 109 131 154 176 180 190 174 177 178 164 163 133 163 170 236 192 199
130 131 126 118 130 136 132 120 131 135 133 158 182 188 214 177 148 137 139 152 169 177 173 160 161 181 206 172 169 168 183 170 172 162 162 164 154 130 105 113 139 108 99 100 88 93 109 119 121 137 157 162 152 157 147 145 136 115 138 176 208 244 139
123 125 117 115 122 85 69 150 158 147 158 172 191 196 195 209 172 168 167 176 178 183 160 165 179 187 194 189 171 172 185 193 205 186 171 173 154 162 142 157 162 138 117 126 143 121 126 138 127 126 142 149 150 149 144 129 123 132 154 169 174 185 155
125 116 117 134 143 121 236 237 173 169 178 172 189 201 210 195 210 179 191 166 173 171 163 172 185 187 178 167 160 160 190 195 195 188 215 203 166 165 169 159 150 147 139 149 148 151 139 139 144 154 157 154 153 146 150 151 137 144 150 143 144 166 164
125 119 116 92 67 278 239 241 210 189 170 177 194 212 208 205 195 186 201 178 185 171 166 169 190 202 169 155 159 174 179 163 161 222 321 356 1 311 221 135 145 171 161 167 160 168 158 148 140 143 164 139 146 139 146 139 135 145 146 157 164 170 124
139 152 156 163 184 208 225 212 188 175 182 194 198 205 206 203 179 191 197 199 180 149 176 193 188 188 182 169 168 177 178 163 158 163 177 238 325 315 273 105 94 141 175 155 187 165 179 160 150 145 189 136 136 135 125 139 151 145 153 157 155 86 121
141 140 152 149 156 175 179 185 175 169 180 195 205 193 166 183 189 184 180 184 175 180 202 205 208 203 193 183 185 188 180 175 170 169 173 184 253 290 287 4 305 143 105 143 155 170 211 211 336 149 163 147 121 108 129 137 157 169 162 174 190 155 144
69 104 115 108 104 99 107 92 83 80 88 135 190 179 143 158 186 180 176 177 186 195 208 214 210 216 217 195 179 184 187 192 183 177 177 179 199 225 259 245 319 117 116 111 140 165 177 182 144 127 134 154 161 147 136 129 155 162 158 174 158 149 166
66 68 74 80 99 119 108 94 93 93 89 94 65 137 150 136 89 61 42 205 198 191 200 207 205 209 220 210 195 193 221 190 62 0 302 204 205 207 224 228 234 213 166 164 157 141 130 131 145 133 128 132 141 145 159 156 155 155 156 138 162 180 154
78 78 71 87 87 73 82 74 63 57 58 48 64 72 94 123 144 130 118 102 342 290 201 185 206 207 206 199 189 179 170 186 150 200 226 217 210 212 211 205 206 228 223 190 164 157 152 135 120 126 124 111 95 121 141 165 177 170 159 145 153 174 176
112 110 98 77 50 36 42 61 64 70 97 64 75 89 95 164 195 134 110 90 119 2 314 253 231 244 240 229 220 190 216 198 197 201 213 216 214 216 207 198 199 215 225 202 177 174 162 158 153 137 114 97 109 95 94 101 107 119 150 160 150 156 219
78 94 94 88 89 89 85 38 46 36 41 114 136 146 157 208 230 326 114 160 186 181 161 191 216 221 237 257 262 245 220 199 210 223 245 244 235 226 214 206 204 214 212 208 195 186 173 171 160 143 127 116 90 53 55 66 68 105 116 111 150 169 159
57 54 55 69 90 96 80 80 99 135 112 66 48 48 19 14 19 274 276 255 263 319 201 207 211 221 222 226 224 249 253 239 211 219 228 232 235 230 219 205 208 216 213 214 205 191 186 164 158 152 144 128 93 58 38 354 323 259 214 155 160 155 157
53 50 52 56 50 45 53 42 359 296 88 40 50 35 156 190 222 300 308 324 318 76 287 284 250 235 232 244 208 230 260 276 267 249 244 243 237 231 218 210 207 211 211 214 201 191 187 165 165 162 154 147 123 115 58 17 36 61 91 100 93 88 87
49 50 48 46 42 36 35 30 40 7 106 142 175 238 199 253 266 238 241 260 232 182 223 265 262 248 232 219 208 214 222 233 251 250 259 262 253 248 239 225 212 207 209 213 197 190 184 173 172 166 158 151 147 142 122 129 98 74 87 85 83 83 83
38 43 46 38 32 34 28 27 6 26 40 53 29 341 182 208 270 260 238 244 218 212 215 224 218 228 232 222 210 227 223 218 240 245 238 250 244 239 249 243 224 216 209 207 188 189 184 182 173 169 169 155 162 168 182 162 136 125 111 90 64 76 56
37 36 35 32 31 34 16 26 24 24 22 24 21 22 25 42 15 314 291 246 247 228 233 247 214 214 217 221 214 226 231 227 243 251 242 237 244 243 244 250 240 226 219 205 193 189 189 186 173 172 158 169 164 185 181 161 158 133 121 108 97 83 82
29 34 35 40 37 36 29 24 22 29 23 11 27 27 21 13 17 356 345 343 340 328 289 272 244 213 220 218 209 198 227 227 247 257 254 252 243 246 250 247 244 225 215 211 199 195 191 194 182 172 180 176 192 166 146 148 151 133 115 108 97 90 91
24 22 20 29 40 43 33 35 32 29 26 35 43 42 27 19 18 17 16 15 20 4 345 330 305 268 217 212 210 209 216 229 239 252 249 245 254 253 246 242 238 226 216 211 208 200 196 195 189 176 194 186 137 137 152 140 132 118 106 106 107 99 98
30 22 21 20 30 28 20 28 30 31 34 36 41 38 31 21 22 17 9 13 16 18 17 19 38 29 27 187 210 212 241 273 339 300 254 247 235 240 242 238 245 242 226 227 219 211 200 197 189 195 173 144 151 146 129 131 126 114 106 108 106 106 105
32 33 33 32 40 37 26 21 32 29 27 34 28 28 18 11 17 18 7 354 359 6 12 14 14 34 66 128 163 199 235 257 284 301 299 264 286 284 285 272 260 236 217 219 11 348 317 262 218 173 153 152 144 143 130 126 119 118 116 112 115 125 127